GSAT-7

Last updated on Sun Apr 12 2026 00:02:53 GMT+0000 (Coordinated Universal Time)

1 39234U 13044B 26100.99304297 -.00000076 00000+0 00000+0 0 9997 2 39234 0.0517 84.7880 0004921 217.2228 328.6983 1.00271794 44582
UTC large
Height (km)
Speed (km/s)
/
Latitude / Longitude
Inclination (degrees)
Orbital Period (minutes)
Azimuth
Elevation
Range (km)
Doppler Factor

Next 0 passes for location: London (51.5072 / 0.1276)

Sorry there are no passes over London.
GSAT-7